Theta_e
332 333 333 332 332 330 329 328 324 329 330 329 328 327 326 325 323 322 322 322 321 322 322 322 321 322 318 318 317 317 317 316 316 316 316 316 316 316 315 315 314 313 313
333 332 332 331 330 329 328 328 328 328 328 328 327 326 325 324 322 321 321 321 321 321 322 322 322 321 320 318 317 317 317 317 317 316 316 316 315 315 314 313 313 312 312
332 330 330 330 329 327 326 327 327 328 327 327 326 326 324 321 321 321 320 321 322 320 320 321 321 321 320 318 316 317 317 317 317 316 316 315 315 314 314 312 311 311 311
330 330 329 330 328 326 326 326 327 326 327 326 326 325 322 321 321 320 321 321 321 321 321 319 319 319 318 317 318 317 317 316 316 316 315 315 314 314 313 311 310 307 310
328 329 329 329 328 326 325 325 326 326 327 325 325 324 322 322 322 322 321 321 321 320 321 320 319 318 317 317 317 318 318 316 316 315 315 314 313 313 313 312 310 307 305
326 327 327 327 327 325 323 324 325 325 326 325 324 323 322 323 323 322 321 321 320 320 320 320 319 318 317 317 317 317 317 318 316 315 315 314 313 312 311 310 308 308 307
327 327 327 327 325 323 324 324 325 326 325 325 323 323 322 322 322 322 321 321 320 319 319 319 319 318 317 316 316 317 318 318 318 316 316 315 314 313 312 309 307 305 305
326 326 326 326 324 323 323 323 325 325 324 324 323 323 323 322 321 322 321 320 319 319 319 319 319 319 319 318 317 316 317 320 320 319 317 316 315 314 313 311 308 306 306
324 324 324 324 323 322 322 323 324 324 324 324 323 323 324 325 322 322 321 321 319 318 318 318 319 319 319 318 318 317 316 317 318 320 319 318 317 316 316 315 314 312 310
325 323 323 323 323 323 323 322 324 324 324 324 324 323 322 322 324 324 321 321 321 320 318 318 318 319 319 319 319 318 317 313 313 317 319 319 320 319 318 318 317 316 316
325 324 325 324 323 322 321 323 323 324 324 324 323 323 323 323 323 322 324 322 321 320 319 319 318 318 319 319 319 319 317 316 313 313 313 314 317 319 320 319 319 318 318
325 325 325 325 323 321 321 321 321 321 321 322 322 322 322 322 323 321 319 321 321 321 320 320 319 318 318 318 318 318 318 317 317 316 315 315 315 315 315 316 317 318 319
323 323 324 324 323 321 320 320 320 319 320 321 321 321 322 321 320 320 319 318 321 320 321 320 320 319 319 319 319 319 317 317 317 317 317 317 317 317 317 317 316 316 317
323 323 322 322 324 322 320 320 321 319 319 319 319 321 321 321 321 321 320 317 319 318 319 320 321 321 321 320 320 317 317 316 316 317 317 317 317 317 316 316 316 316 316
323 322 322 321 322 321 318 317 317 318 316 317 319 320 321 321 321 321 321 318 317 323 320 319 319 319 320 320 319 316 317 317 316 316 317 317 316 315 316 316 316 317 317
322 322 322 321 320 319 319 316 313 313 314 316 316 318 320 319 319 319 319 320 320 320 323 319 319 319 320 318 318 316 318 315 316 316 317 316 316 317 316 316 317 317 317
322 322 321 320 319 318 318 316 314 314 315 315 315 317 318 318 318 319 320 319 318 318 318 318 318 318 318 319 319 318 317 316 316 315 316 317 317 317 317 317 317 317 317
321 321 321 321 320 319 318 315 313 314 315 316 317 316 315 317 318 316 316 317 317 317 317 318 317 318 319 319 318 318 318 319 319 318 317 316 317 317 316 317 317 316 316
324 323 324 322 321 320 319 317 317 317 318 318 318 315 315 317 318 318 317 317 317 317 318 320 321 320 320 319 319 320 320 320 320 318 317 316 316 316 316 316 316 316 316
324 324 324 324 324 323 323 323 323 323 322 320 318 316 317 318 318 320 320 321 322 322 322 322 321 321 321 321 321 321 322 321 321 320 319 318 317 317 317 316 316 315 316
321 322 322 322 322 323 322 322 322 321 320 320 320 320 320 321 321 322 322 322 322 323 323 323 322 322 322 322 322 322 322 322 322 321 320 320 320 320 319 318 317 316 316
322 322 322 322 322 319 320 320 321 321 321 321 321 321 321 320 320 320 320 319 320 321 322 322 322 321 321 321 321 322 321 320 319 319 319 319 319 320 318 318 318 317 316
313 315 315 316 313 306 308 316 319 319 320 321 321 321 321 321 321 321 320 319 319 319 319 319 320 321 320 320 319 319 319 319 319 318 318 318 315 307 296 295 296 305 307
301 300 299 298 298 297 301 305 311 315 315 315 314 314 315 315 315 316 317 317 317 318 317 315 314 312 312 312 312 312 310 308 310 310 309 301 296 289 289 289 289 290 292
293 291 291 291 291 291 295 301 305 307 305 303 300 299 301 301 301 305 308 309 312 312 306 308 305 298 295 296 298 301 302 301 304 303 298 297 292 288 285 285 285 285 286
291 289 288 287 288 287 290 295 297 297 295 292 290 290 291 292 296 299 301 302 302 297 296 293 292 291 290 289 291 292 291 291 296 293 287 289 288 286 283 281 282 282 282
Wind_Speed
19 17 17 16 18 22 25 26 26 26 21 19 18 16 14 12 12 13 15 19 19 18 17 18 17 17 17 17 16 15 14 15 15 14 14 14 13 13 13 13 12 12 11
18 19 18 20 21 23 28 30 30 25 22 19 18 17 13 12 14 14 17 18 20 19 18 18 18 17 16 16 16 15 14 13 13 13 13 14 14 13 12 12 12 11 11
20 21 21 22 27 30 28 32 28 23 21 20 19 16 14 13 15 15 15 17 17 18 18 18 18 17 17 17 17 16 15 14 13 13 13 13 13 13 13 12 11 11 11
21 23 25 24 30 36 33 33 26 23 23 21 20 17 14 14 15 15 15 16 16 16 16 17 17 17 17 16 16 15 15 14 14 13 13 14 14 14 14 13 13 12 11
25 22 26 27 34 37 37 37 28 24 23 21 20 17 15 15 15 15 14 15 16 15 15 16 17 16 16 16 15 15 15 15 15 15 15 15 15 16 15 15 14 13 13
25 29 29 29 39 40 38 37 29 27 25 23 20 17 15 15 15 13 14 15 16 16 16 16 17 17 18 17 17 17 16 16 15 16 17 17 17 17 17 17 16 15 15
30 29 30 36 39 40 43 42 29 28 24 24 22 15 11 10 11 12 13 15 16 17 16 16 17 16 18 21 20 19 19 18 18 18 19 19 19 19 19 19 18 17 18
24 31 35 41 41 39 40 37 30 27 24 25 22 19 6 6 11 14 14 16 17 17 17 18 18 17 16 18 21 23 23 22 21 21 21 22 22 22 22 22 21 21 21
20 23 32 38 39 40 38 36 32 28 25 25 24 17 6 6 16 16 16 16 17 18 18 19 21 21 19 18 19 23 26 26 25 25 25 24 25 24 23 23 23 23 23
21 25 27 32 37 36 33 34 32 29 28 26 22 22 16 11 10 6 16 18 18 20 21 20 22 23 21 20 21 22 24 27 27 29 30 29 30 30 30 28 27 26 26
23 25 27 27 30 29 30 32 30 29 27 27 24 18 14 12 14 8 7 16 17 20 21 24 23 22 22 22 22 24 28 29 27 29 31 32 33 34 34 34 35 34 33
25 25 27 27 30 28 32 31 30 26 24 23 23 27 22 16 14 11 5 12 17 20 23 22 25 26 26 26 30 28 29 29 28 31 32 34 35 36 38 38 39 39 39
24 28 32 33 32 33 33 36 36 34 31 27 27 26 25 22 16 15 14 12 8 15 15 23 24 24 24 24 26 30 32 32 32 34 35 36 37 38 39 40 41 43 43
24 27 30 34 34 34 34 35 36 37 34 32 30 30 27 24 23 18 16 14 8 14 15 13 17 22 24 25 27 30 31 29 39 39 38 37 37 39 39 40 41 43 44
20 26 27 32 35 37 35 36 37 36 27 31 26 27 27 24 21 20 19 20 18 9 11 17 18 17 19 19 24 27 27 23 27 38 37 38 35 35 37 37 38 39 38
19 22 24 28 32 36 39 35 35 36 27 27 28 27 25 25 24 23 23 24 20 20 12 24 21 18 17 20 24 28 28 34 32 32 33 36 37 39 42 43 43 43 41
17 17 22 26 29 31 33 33 30 29 28 27 28 27 26 26 25 22 25 24 22 21 12 25 26 29 30 29 29 27 31 38 43 41 43 44 46 46 44 46 51 54 49
17 21 19 27 26 29 31 30 28 27 33 30 30 29 31 27 26 33 33 27 26 29 24 26 32 36 34 36 40 40 40 38 36 38 44 45 48 50 51 56 54 54 57
17 18 19 21 23 29 29 30 29 30 33 32 29 30 32 29 30 28 30 30 29 31 32 32 33 33 35 36 35 37 39 37 39 42 45 52 55 57 57 58 61 59 59
15 16 17 18 20 22 24 24 25 26 26 29 30 33 35 33 33 32 32 34 33 32 31 31 32 32 32 35 34 34 32 35 37 38 40 44 45 46 49 52 54 54 55
16 14 15 15 16 16 18 23 23 23 25 27 29 31 33 34 35 35 32 32 30 30 29 30 30 30 31 30 31 33 34 34 35 35 36 37 34 36 39 44 47 47 44
10 13 14 14 15 14 18 22 22 23 25 26 27 29 30 33 38 43 44 45 41 33 31 30 29 28 34 35 34 33 32 29 17 31 36 37 36 36 32 34 33 32 34
10 9 6 6 8 3 3 17 25 28 22 22 24 25 25 26 29 32 34 39 45 49 51 45 36 33 33 32 30 31 31 32 32 30 30 30 19 12 7 10 17 27 29
12 12 13 11 9 13 8 3 11 16 20 25 15 13 15 17 16 21 27 30 33 39 41 44 41 38 34 37 34 29 26 22 24 14 11 1 4 6 7 12 14 11 6
15 16 17 16 14 17 15 8 4 1 3 5 5 8 6 8 12 16 20 22 23 16 14 17 14 11 9 14 18 22 19 16 13 11 7 3 7 8 5 10 14 15 12
17 16 18 19 19 19 23 17 13 8 9 9 12 14 19 14 12 12 11 10 10 4 3 3 5 7 10 11 12 8 7 6 6 1 9 3 3 4 4 7 9 10 11
Wind_Direction
222 219 222 206 187 180 181 183 190 184 169 166 166 167 169 173 170 170 167 171 168 166 164 161 163 160 165 168 166 167 175 164 163 162 161 159 159 160 158 157 156 155 152
218 216 214 200 183 179 186 187 185 180 170 167 166 167 171 173 172 169 164 173 175 170 169 167 169 167 169 175 177 176 179 178 173 171 172 171 171 176 173 176 168 168 165
220 215 202 195 184 184 188 186 188 175 174 169 169 170 171 174 170 168 164 171 179 178 181 178 177 174 178 183 187 180 184 184 186 184 185 186 184 185 188 189 185 182 182
219 209 199 188 181 181 181 178 174 179 174 173 172 171 165 173 168 169 169 174 178 180 184 186 192 191 192 193 191 190 191 192 193 197 199 201 198 198 201 200 200 197 200
213 203 194 182 183 179 174 179 180 180 174 176 171 170 163 172 173 175 178 181 182 181 184 194 194 198 202 201 198 198 204 202 202 206 209 211 210 211 211 210 212 213 213
214 215 213 189 191 183 176 178 181 184 179 173 170 167 164 178 179 177 184 191 187 192 188 190 201 207 212 208 205 206 208 213 213 214 218 219 219 218 220 221 222 224 227
224 214 209 198 182 181 180 178 182 177 179 170 163 152 157 177 180 185 191 196 196 198 194 199 206 208 215 214 216 211 212 214 219 221 223 225 226 227 228 230 230 233 235
232 231 219 187 182 179 176 175 178 176 166 169 163 161 154 176 196 199 196 199 200 203 205 208 214 213 212 213 216 218 215 215 220 225 228 234 235 236 236 236 238 240 242
210 206 176 171 171 169 170 176 180 175 166 176 184 182 168 192 180 199 205 206 203 205 210 214 220 221 218 215 219 221 223 218 219 227 234 242 248 253 254 253 254 253 251
191 176 169 158 162 166 173 177 178 178 175 182 195 201 202 194 187 175 209 211 214 211 211 215 222 223 222 224 225 225 232 227 226 226 230 238 247 253 257 260 261 261 261
189 188 180 176 169 168 176 178 181 183 188 186 189 185 197 186 209 194 186 200 213 221 219 220 221 221 222 225 232 233 235 237 237 238 238 239 241 245 252 258 261 263 264
196 196 187 188 184 174 175 179 181 181 184 188 195 198 200 187 186 187 195 191 208 214 220 220 224 221 223 226 231 236 242 245 249 248 247 248 249 250 251 254 256 260 262
185 193 197 191 194 192 189 189 189 192 194 193 201 209 211 211 202 210 224 212 216 213 214 222 226 230 233 234 236 243 244 253 260 255 252 254 255 257 258 258 260 261 261
188 199 202 195 196 197 196 196 200 202 204 207 218 219 215 214 220 219 219 229 236 247 221 229 228 230 233 235 240 253 257 269 263 258 257 256 258 259 261 261 263 263 263
193 200 201 198 200 203 195 194 198 202 209 214 222 220 223 220 221 225 234 244 240 243 245 229 232 233 232 235 243 252 251 265 281 258 261 264 261 263 263 264 266 266 266
188 193 201 205 206 206 204 201 206 208 214 220 221 229 230 231 234 241 244 241 239 255 259 253 234 237 239 246 252 257 253 271 271 273 271 270 268 275 277 268 269 273 265
182 189 195 200 203 201 203 205 203 200 211 220 225 223 223 233 231 234 233 236 245 237 245 263 260 264 267 259 258 260 266 267 265 261 262 261 262 263 269 272 274 269 267
192 194 190 199 204 209 208 208 206 212 210 223 223 221 229 231 239 239 242 242 239 241 235 250 255 260 251 256 258 261 260 257 254 256 258 264 260 257 265 270 271 268 268
188 193 193 191 196 203 203 206 208 212 217 225 225 224 229 232 235 240 243 240 241 243 240 244 253 252 254 256 256 257 255 255 255 257 256 261 263 262 263 267 269 270 268
192 195 200 202 203 206 209 211 215 219 217 221 225 233 237 235 235 237 236 243 243 244 243 240 249 253 252 257 257 258 256 250 249 254 256 256 260 263 265 267 269 271 271
202 201 202 210 211 215 219 222 220 221 223 227 232 233 234 237 240 242 247 252 251 251 250 249 247 253 256 258 255 256 255 257 256 256 259 258 259 258 257 262 267 268 269
187 198 199 208 208 202 219 223 225 226 229 233 238 241 244 247 248 249 249 251 250 252 254 256 255 251 253 254 255 256 260 260 261 254 255 257 255 258 267 260 256 255 258
114 141 145 186 133 147 238 223 229 231 240 245 248 253 256 253 252 251 252 255 256 256 254 254 256 253 257 257 265 268 265 263 265 269 266 263 257 235 317 316 306 272 263
77 78 83 84 85 42 28 330 257 250 252 251 276 270 260 262 264 261 256 256 258 262 262 262 263 263 265 268 265 266 268 275 281 276 280 326 316 55 77 62 52 68 92
69 68 67 66 59 35 27 29 30 81 132 100 65 24 346 318 307 289 281 281 270 262 263 263 241 226 248 272 280 277 282 279 274 269 311 245 183 141 78 74 84 76 77
72 70 69 60 56 39 32 42 55 75 93 81 58 43 42 32 4 348 334 310 299 294 247 144 88 50 37 39 34 14 312 295 281 74 2 354 131 138 110 80 69 64 62